Back to catalog

USA 264

AliveMilitaryLEO
NORAD 40964·PAYLOAD·🇺🇸 United States

Launched Oct 8, 2015 from Vandenberg Space Force Base

Loading…

Next Passes (next 24 hours)

TLE

StaleSource: Mike McCants

Epoch: Sep 7, 2026, 00:56 UTC

1 40964U 15058A   26250.03900963 0.00000000  00000-0  00000-0 0    00
2 40964  63.4447 225.2714 0239919 357.9817   2.0183 13.41001364    06

Track USA 264 in real time with AllMySat

Download on the App Store